timestamp,gas_concentrations,,corrected_fluxes_and_quality_flags,,,,,,,,,,storage_terms,,,turbulence,,,footprint,,
ISOdate,CO2_1_1_1,H2O_1_1_1,Tau_1_1_1,QcTau_1_1_1,H_1_1_1,QcH_1_1_1,LE_1_1_1, QcLE_1_1_1,Fc_1_1_1, QcFc_1_1_1,E_1_1_1, QcE_1_1_1,Sa_1_1_1,Sw_1_1_1,Sc_1_1_1,ustar_1_1_1,MO_length_1_1_1,ZL_1_1_1,Fetchmax_1_1_1,Fetch70_1_1_1,Fetch90_1_1_1
yyyymmddHHMM,[µmol+1mol_a-1],[mmol+1mol_a-1],[kg+1m-1s-2],[#],[W+1m-2],[#],[W+1m-2],[#],[µmol+1s-1m-2],[#],[mmol+1s-1m-2],[#],[W+1m-2],[W+1m-2],[µmol+1s-1m-2],[m+1s-1],[m],[#],[m],[m],[m]
201810270030,423.10379037265216,7.1792474341585244,0.16514017987395879,0,-11.133642798840222,0,-0.23449360829047122,2,0.88886235078297959,0,-5.23519940806283033E-003,2,-9999.,-9999.,-9999.,0.37519948453699287,396.53503970740991,5.44718570543927874E-002,106.71383337374240,195.10692203872819,292.30572235012500
201810270100,423.36407299685072,7.2562895614340350,0.16148498222551716,0,-21.146241114512513,1,2.4881200448706307,2,1.0765079036935044,1,5.55261899634625217E-002,2,-9.7818988050212550,2.7300984154852057,0.20583620119479071,0.37075616461602695,201.44288578939558,0.10722642259296444,113.52888377103608,207.56700771382447,310.97320121630537
201810270130,423.01794077695502,7.3158453654455791,0.25766079415671683,0,-3.2782606126610823,2,-1.4988088822114718,1,1.9861951958163611,0,-3.34369757429562250E-002,1,-8.1323259180475347,2.1137961963627094,-0.27407017665395128,0.46803658262870568,2614.0476348879693,8.26304758632515068E-003,118.99044879164443,217.55249044831945,325.93327394576943
201810270200,423.17025266498774,7.3800602485619766,0.38341009355718275,0,-16.543444990807640,1,-3.6860678672649394,0,2.1244262857933651,0,-8.22092920804856075E-002,0,-6.8778579761549725,2.2822184752518555,0.12072936136912292,0.57064105323045067,938.81411845786602,2.30077494312516673E-002,129.18612554613773,236.19343929985288,353.86081215098818
201810270230,423.17387896738842,7.3871960492355218,0.23324781670385253,0,-7.9007981402119629,0,-3.5683842978558005,0,1.4623350216341349,0,-7.95603043755318817E-002,0,-7.4267602537723718,0.25402122661051585,2.87816794704084597E-003,0.44478907995362199,931.01649537536218,2.32004482276024875E-002,113.56521697840166,207.63343640477092,311.07272350023550
201810270300,423.14944567847232,7.3955334016609813,0.30403367889723226,0,-4.2996181220628253,0,-1.4970781723817470,0,1.7054799961954368,0,-3.33729281477990192E-002,0,-4.1984317557458546,0.29706133143361346,-1.94066122645074335E-002,0.50763202735138679,2543.3464118680977,8.49274793996100501E-003,117.74472734259994,215.27491433698751,322.52104990228770
201810270330,423.24346592734986,7.3904775787783850,0.33400074799054663,0,-2.1149133838187510,0,0.43690805204292305,2,1.8843079085217254,0,9.73848132086345929E-003,2,-2.7257679017415106,-0.18025427526610471,7.47164632831330694E-002,0.53192195371569717,5949.3443179952092,3.63065219383347081E-003,117.96163969441362,215.67149929674923,323.11520643925229
201810270400,423.15734954530888,7.4237569345460477,0.22811904956190796,0,-3.8799873370605322,0,-0.39022375342365279,2,1.4785839289937905,0,-8.69790958510448936E-003,2,0.0000000000000000,1.1865200041520800,-6.84363938210645895E-002,0.43959677407265740,1830.4510899856864,1.18003699296706736E-002,111.55393176679772,203.95616557144129,305.56350170542856
201810270430,423.30965484843432,7.4478528892942935,0.19270672455198137,0,-2.1419224795923162,0,-0.40988071412976546,2,0.87290393577000047,0,-9.13605427885945572E-003,2,0.0000000000000000,0.85915577804445353,0.12104420112823580,0.40402694337585504,2574.3859185031342,8.39035043066085028E-003,106.68263828018544,195.04988745854126,292.22027415594368
201810270500,423.37974563986410,7.4449489965115152,0.26245826631747815,0,-5.7129317908884580,0,2.9170533397352045,0,2.1592361673389813,0,6.50197892397341576E-002,0,0.0000000000000000,-0.10353941377392306,5.57041145380233332E-002,0.47151238836086989,1534.1385980412078,1.40795623208873934E-002,117.02335730648083,213.95601984178893,320.54510561443664
201810270530,423.24658618826703,7.3879408099221724,0.20734595121232419,0,-2.6982902157558311,1,2.3651357686581784,0,1.7763307020466943,0,5.27169450583216750E-002,0,-0.39385907928070135,-2.0328006413854163,-0.10583363660074853,0.41907655040469782,2280.5029797344187,9.47159472798210500E-003,116.83457409831813,213.61086392795139,320.02799915986566
201810270600,423.05939009393950,7.3895083154904828,0.14011892689794619,0,-4.2040292538387227,0,1.4385660671199103,0,1.7832808422308788,0,3.20621027518614848E-002,0,-1.7920725640092316,5.59108303744510343E-002,-0.14881469653524385,0.34446527819122386,812.81652149135277,2.65742629841829517E-002,103.60027739540045,189.41434869257142,283.77721015490346
201810270630,422.60180411453143,7.3470746720929681,0.16561790996973361,0,-5.1486334384771704,0,1.0602319912370131,0,1.6276608515563951,0,2.36278892728662149E-002,0,-2.1403060013439039,-1.5141451613561447,-0.36387642758631955,0.37443903712207283,852.43401114476774,2.53392048153879938E-002,106.08363277592598,193.95471435374790,290.57950527829462
201810270700,422.08373272938798,7.3553690547885111,0.19723293551536830,0,-5.5739026140768981,0,2.6687400952216325,0,2.2606037193202191,0,5.94736772724559146E-002,0,-0.30909148736461034,0.29599011718866258,-0.41200383440122307,0.40860403641516618,1023.2112463639467,2.11100103490429042E-002,111.48262258856316,203.82578965073262,305.36817481860362
201810270730,421.84958886693971,7.3222155696151878,0.24941664782489947,0,-2.7457533098103810,1,6.1909346233188103,0,2.3974162541120054,0,0.13796671246878253,0,-2.31831261608004338E-002,-1.1831746045966050,-0.18621751484298882,0.45947287146032972,2953.5881790730273,7.31313869450110014E-003,117.50507354755486,214.83675076598740,321.86460102907307
201810270800,421.75180486453183,7.2635797822062029,0.20051763903580230,0,-2.9765426335996863,0,4.9030146659880467,0,1.5566431913160106,0,0.10925580084990280,0,-2.0639020138559703,-2.0933945674751291,-7.77924506667947574E-002,0.41191031836407005,1962.9876594074890,1.10036351458876608E-002,110.42533413119058,201.89272914579720,302.47209793246691
201810270830,421.42015441684890,7.1873889754487550,0.21279053169978390,0,-2.0527611865015700,2,8.3352062803829607,1,1.9301578572795932,0,0.18572017809525307,1,-2.1649002764869105,-2.7210570597217414,-0.26391155388844778,0.42426985008110074,3110.1151150589021,6.94508055197529898E-003,121.96360841246056,222.98837447579737,334.07721876669200
201810270900,420.97805945026806,7.1133322531841570,0.18625379588453053,0,-4.5775085525533461,0,5.4325100572710445,0,1.1103984627851853,0,0.12103889691985281,0,-1.0283496710328079,-2.6450435972076085,-0.35181012713773152,0.39692185686574410,1141.9042504347010,1.89157716085015838E-002,107.36363570290887,196.29496794026787,294.08563160093939
201810270930,420.62186839247454,7.0649271068665849,0.17994322311688546,0,-5.4834876634344800,0,6.5378228169122723,0,1.3294419446776558,0,0.14565576346685480,0,-1.6781758810756022,-1.7293476684145115,-0.28350995639589521,0.39009460342267882,904.85278026457502,2.38712865463973668E-002,112.88973500362806,206.39843992095848,309.22247372166021
201810271000,420.68583679511755,7.0998390453911950,0.17989126238635980,0,-3.5622946053977156,0,1.7954616765668800,1,0.75284358311159816,0,4.00009832936005158E-002,1,0.0000000000000000,1.2474991623227518,5.09244482233954451E-002,0.39000694633240252,1392.0941564134371,1.55161918470010669E-002,113.83621846738846,208.12891355813065,311.81503856372694
201810271030,420.78559412197467,7.0763072571910648,0.26278793420639246,0,-9.1690835164086248,0,5.8478330283728734,1,2.4296093782920991,0,0.13027649812919659,1,-1.3154281520509044,-0.84121911031555519,7.94456485391817624E-002,0.47128740956231424,954.47586836132325,2.26302211674388569E-002,124.46048753320753,227.55346584727437,340.91655750972768
201810271100,421.09340327136078,6.9937540901684470,0.18937065242878354,0,-7.6337609980828418,0,4.4314314059681017,0,2.0038841947529482,0,9.87123484846331029E-002,0,-2.4541312807260667,-2.9529667445895291,0.24526399333084103,0.39996242156388545,700.79254874407172,3.08222455257415769E-002,120.64791762483364,220.58287209796075,330.47333786476838
201810271130,421.38114018414194,6.9931413322518940,8.39520133398905105E-002,0,-3.0679095580188434,1,1.3620276358339538,0,0.90850319838021054,0,3.03366425759436301E-002,0,-2.5792491076831947,-2.19316291269218630E-002,0.22938189544523288,0.26623963874209072,514.36549766294547,4.19934853681692630E-002,111.63164142060606,204.09824360282587,305.77636048644968
201810271200,421.73071439781785,6.9775129386897952,0.18765592472745737,0,-6.9726978806413831,0,3.0662851087111007,0,1.8181740881369075,0,6.82918581976274253E-002,0,-1.4177910609365447,-0.55954511627224490,0.27875107805992572,0.39799737409059588,756.04432563308092,2.85697534756484475E-002,118.65775443258619,216.94421905253739,325.02197255332732
201810271230,421.40473291081798,6.9877166172674459,0.21143882686002993,0,-5.8436786589268248,0,1.9341753012375695,0,1.6220364715649609,0,4.30790792320767599E-002,0,0.79795468392830626,0.36529376292724941,-0.25992556875196199,0.42247676263451706,1079.0808957160975,2.00170349468246807E-002,117.17480713706797,214.23291843454825,320.95995016392004
201810271300,420.56663349228455,6.9969722636597051,0.24667301427763269,0,-3.6040705075517536,0,2.7142350336769501,0,2.3947981314405915,0,6.04530240849591241E-002,0,0.0000000000000000,0.33139611130736801,-0.66835433928882326,0.45629368216641153,2204.5096186347782,9.79809741695596495E-003,120.62472462482300,220.54046789691333,330.40980864454224
201810271330,420.45387723179493,7.0793401629185420,0.31414803146589682,0,7.9533009722309709,0,4.6574519519425390,0,-0.36308000088675502,2,0.10374259496815851,0,2.1459183626038456,2.9484280747841178,-8.99046047767245310E-002,0.51498261494246333,-1436.3564411218651,-1.50380500143330285E-002,126.69474278040238,231.63839701830966,347.03652877585728
201810271400,419.85454326509807,7.0711476774563042,0.27892574992746899,0,15.165816955505164,0,5.5452314425629812,0,-0.25638630124284134,0,0.12351970637451330,0,0.44159284913710456,-0.29326119082073304,-0.47788607893178159,0.48524594971847479,-630.20645966718064,-3.42744820664123498E-002,117.39566449215806,214.63671611849358,321.56491267604207
201810271430,419.65139949926572,7.1430887853780805,0.45690189945989029,0,48.310476385108842,0,14.156802454000008,0,-0.11771418315441062,0,0.31538895234231068,0,3.6395156028847517,2.5736153695306063,-0.16190166806449588,0.62121059033894632,-415.11792846894343,-5.20334066988291516E-002,128.16326204624255,234.32331859646325,351.05903055670052
201810271500,419.51603610200488,7.2140839664808505,0.50709026350695996,0,71.675802317639352,1,16.074306950135888,1,-1.4509556936911503,1,0.35819236547919425,1,5.7724387887631403,2.5372347551474190,-0.10779958617378345,0.65469924242950694,-327.56474377534903,-6.59411625043925531E-002,126.34010694688057,230.99000960933384,346.06512628555618
201810271530,419.12351593622259,7.2452993643471393,0.41245076814206105,0,48.943340606328135,0,14.342862058880586,0,-1.2976230142388934,0,0.31967323719075968,0,4.8482614999770091,1.1145732592650734,-0.31237205556529613,0.59066420670833819,-352.28292808659762,-6.13143535433835277E-002,116.44650930103090,212.90135771159123,318.96502955879794
201810271600,418.41783312267791,7.2689059680762522,0.36924315577091210,0,47.467575954514217,0,13.743964518431451,0,-0.40281614144483369,0,0.30640571994355809,0,6.4116586867008474,0.84183917595684599,-0.56103506548604964,0.55914910566243370,-308.14478535217069,-7.00969188081956990E-002,119.40926527543141,218.31822055534852,327.08047718039353
201810271630,418.13356665240661,7.2955865917968268,0.52810694535848801,0,47.656789707932482,0,27.172301582367911,1,0.39674460325333216,1,0.60595605103145389,1,7.2689041087261579,0.95013089198204614,-0.22575002036700945,0.66907329501449953,-525.86970151510639,-4.10748136615729856E-002,132.15771162034034,241.62644638226439,362.00044678395318
201810271700,417.37300121025504,7.2347258007544877,0.18111230046996682,0,17.949280607237156,1,9.9934843367520543,0,0.23402982404383610,2,0.22291905331177250,0,6.4602100414275636,-2.1646943031453776,-0.60342850786440771,0.39200190895016490,-280.81050781649094,-7.69201984924137994E-002,90.549613079275872,165.55357202679517,248.02941870678515
201810271730,417.68680999499310,7.1842814469509415,0.27470106512171766,0,30.719863325441853,0,4.5292975656843018,2,-0.54880425851815962,0,0.10102319875059401,2,-2.2361998479413834,-1.7948403866798119,0.24903972553181136,0.48270642387655827,-306.33415018174401,-7.05112374418098847E-002,106.73302060628501,195.14200241927003,292.35827915265889
201810271800,418.00122699448184,7.2949113124730491,0.38772635898641539,0,50.763531860233691,0,11.787614387572681,1,-1.1644806076140650,1,0.26291716454204284,1,0.15418022210503796,3.9351467365838486,0.24945234184836484,0.57356898802655776,-310.95602781187114,-6.94631975845409061E-002,113.68926992555024,207.86024475681671,311.41252374149309
201810271830,417.99439651909796,7.3608224788296877,0.48620411280128950,0,76.081491086473832,0,74.346184506565024,1,-4.6716969810334570,1,1.6582496421289634,1,-0.10019502242105163,2.3439521122574445,-5.41791135845478937E-003,0.64237412662650106,-291.41170831244136,-7.41219360233846269E-002,125.28804009070065,229.06649585672290,343.18335217404757
201810271900,416.93179675960971,7.0444181460864730,0.34694891562381297,0,91.722062186003740,0,35.581210804829119,0,-0.67328950463773207,0,0.79418164756544196,0,17.150815964208014,-11.210622116073877,-0.84034211465457964,0.54341636982171482,-146.29593550077738,-0.14764593374424420,111.67627132854709,204.17984130852113,305.89860871862999
201810271930,416.37693412454234,6.8571405073002545,0.30689230766006742,1,105.74950938748493,0,19.100418412849319,0,-1.9098105532456842,0,0.42661871361475001,0,16.533852382606490,-6.6117377277707954,-0.43753438953258228,0.51180837060089157,-105.98452157090489,-0.20380334486436633,107.86575031071177,197.21299358457213,295.46100130228211
201810272000,416.23401398153493,6.8247977116740737,0.50042385647022480,0,88.564883039235625,0,12.624165309107736,1,-1.8014575214293407,0,0.28208397789284445,1,9.8962155083999725,-1.1393047988317855,-0.11249456968577246,0.65414649938644931,-264.16649656909857,-8.17666141639200872E-002,124.34505271695841,227.34241418712463,340.60036366417552
201810272030,416.27001136093867,6.9641059794709248,0.37849688218231536,0,35.574119029892131,0,15.041490609569449,0,-0.45318679789164196,0,0.33602745697330455,0,-5.0899397125470420,4.9122324489926674,2.83567720001959706E-002,0.56868889278196832,-432.13109812213185,-4.99848312094753749E-002,113.01637767523263,206.62998311526010,309.56936761941830
201810272100,416.01996090675942,7.0579713297113136,0.32384595041871150,0,32.172469519753250,0,12.650162327658224,0,-0.34516599158883410,0,0.28259763509534930,0,-0.63536611529255327,3.3102990126648040,-0.19699807933171573,0.52601282946969052,-378.12945777513244,-5.71232935066518302E-002,119.40503203151583,218.31048083534697,327.06888166946953
201810272130,415.89799975147821,7.0561633928425120,0.34382475339553870,0,15.370538989649242,0,10.191721766064461,0,8.14990878398447194E-003,0,0.22769408623203455,0,1.7602080227917198,-6.37386975110840887E-002,-9.60606774142054587E-002,0.54206408929558469,-866.17443910758641,-2.49372401502107738E-002,115.50201012766993,211.17451199012615,316.37789999555326
201810272200,415.89584739369724,7.0675750639000441,0.22269359108020106,0,-0.63748289174436801,2,6.4125841161242203,1,0.54513248386286695,0,0.14324902953776494,1,-2.5266479596183635,0.40254030036776467,-1.69602871109359376E-003,0.43615369477649296,10879.521786230111,1.98538138205104579E-003,109.70853146598367,200.58218526131441,300.50866438114861
201810272230,416.11680490776808,7.0830619009278877,0.20664631997157801,0,-5.7741408316176068,1,13.888829527696679,1,1.0628383180256979,1,0.31020632919361585,1,-4.0834014057750307,0.54671464326254293,0.17421749317660315,0.42001875607993089,1072.6793962635475,2.01364919240912509E-002,116.90887207566308,213.74670432666247,320.23151283049646
201810272300,416.66261541150084,7.3526581686877561,0.25846771347115877,0,-0.62531140429497267,2,-0.97426065004490547,2,0.50883818577457574,1,-2.17527119009138827E-002,2,-8.1529188883474593,9.5307431090596815,0.43081718955859288,0.46951137619250571,13834.111961787950,1.56135789992611646E-003,106.04048328237096,193.87582331770423,290.46131213047221
201810272330,417.04340631134676,7.2441823206127758,0.34813070077572994,0,-0.88608875437956658,2,17.331463542978977,1,0.51985567679593370,2,0.38692798493954517,1,-2.4091006747980592,-3.8365713999695625,0.30067110629489180,0.54478883640847486,15251.123655544314,1.41628908714195949E-003,107.35392793366290,196.27721904195204,294.05904051698957
201810280000,417.56103037120579,7.1491954747163824,0.31984185122753267,0,-7.5131500998715088,1,6.9515409968876547,0,1.9600268710993098,1,0.15517564002177242,0,-2.9172741166147524,-3.3620348641304569,0.40897396079036463,0.52201000618556470,1582.5505074835933,1.36488534791512402E-002,115.35134960631761,210.89905650638534,315.96521748634848
